Wind_Speed
3 3 2 4 5 7 7 7 7 5 3 3 2 2 3 3 5 7 5 6 3 2 5 4 7 6 7 9 9 7 12 13 12 12 14 19 23 27 29 30 33 37 40 39 36 36 36 35 37 38 41 42 40 36 35 37 38 38 39 39 38 36 36 36 36 34 33 32 31 31 31 31 29 28 27 25 23 21 19 19 19 16 14 13 13 12
4 4 3 6 7 8 8 7 5 4 3 2 3 3 4 3 5 8 5 4 2 3 3 2 7 6 8 9 5 5 8 9 13 14 14 19 22 23 25 26 29 33 34 34 33 33 34 34 36 38 40 43 40 37 36 36 37 39 41 40 36 35 35 35 35 34 33 33 33 33 32 31 29 28 27 24 23 21 19 19 19 16 15 14 14 12
4 2 6 8 7 5 4 5 5 4 4 2 2 2 3 3 4 7 6 4 1 3 2 1 5 6 7 7 4 6 7 9 19 22 20 24 24 22 24 25 26 27 26 27 28 31 35 36 36 38 40 41 40 38 36 34 36 39 40 39 37 36 35 35 35 33 32 32 32 32 31 29 27 26 25 22 21 20 19 20 19 18 16 15 15 13
2 3 7 7 6 5 3 1 2 2 2 2 3 3 3 3 1 3 5 5 4 1 0 2 3 4 5 4 4 7 8 8 16 22 22 25 28 27 28 29 28 27 25 24 25 28 33 36 38 39 41 41 39 39 39 37 40 42 42 41 40 37 35 35 35 33 31 30 30 31 30 27 26 24 22 21 21 21 22 23 21 20 19 16 15 13
3 7 7 5 5 5 5 4 4 3 3 2 3 3 3 4 2 4 3 5 4 3 3 5 2 4 4 2 4 4 4 5 8 13 16 20 26 30 32 33 33 33 30 27 27 29 31 34 38 40 42 41 37 37 41 41 42 42 42 41 39 36 35 36 36 33 30 29 30 32 30 28 26 25 23 23 25 26 26 26 24 22 21 18 15 13
5 6 5 4 5 6 6 4 3 3 3 4 2 4 5 5 4 4 4 4 4 4 2 4 2 4 5 2 5 4 2 4 4 5 11 19 24 27 31 33 33 34 34 32 32 32 31 31 35 38 40 42 40 41 43 43 42 41 39 38 36 36 37 37 36 32 31 31 33 34 32 30 29 28 27 26 28 29 30 29 25 23 23 19 16 14
3 3 2 3 4 5 5 3 2 3 5 4 2 4 3 2 3 4 3 4 3 2 3 3 3 3 6 3 5 4 2 4 5 5 7 15 20 24 28 31 31 33 34 33 33 32 31 31 32 35 38 41 45 47 46 45 43 41 40 38 37 38 38 38 35 32 33 34 35 35 34 31 29 28 27 26 27 29 31 30 25 25 24 21 18 16
3 5 5 4 4 5 5 2 2 3 5 2 3 1 2 3 2 2 3 4 1 2 3 5 3 2 3 4 3 2 1 3 5 6 7 9 16 22 27 29 30 33 34 32 32 33 33 34 35 36 37 39 44 46 45 45 44 43 43 42 40 39 38 37 35 34 35 33 32 36 37 34 31 29 28 28 28 28 30 30 26 25 25 22 19 17
2 2 3 4 5 3 0 2 4 2 2 5 4 1 2 1 1 2 5 3 1 2 3 6 3 2 3 5 3 2 3 3 7 7 7 9 10 14 19 24 27 30 33 33 34 35 35 36 38 38 38 38 39 40 40 42 45 44 43 43 41 39 38 38 37 37 37 32 29 33 36 36 35 31 31 32 28 25 29 31 27 25 26 24 21 19
3 4 3 2 1 2 4 5 4 3 1 4 1 3 4 4 4 4 5 2 3 4 1 5 4 1 3 5 4 2 4 2 6 6 6 9 10 9 12 17 22 26 29 31 33 35 36 38 38 38 39 38 35 34 34 36 42 45 44 43 42 40 39 39 38 37 37 35 34 37 38 38 36 34 36 35 29 25 28 29 27 26 26 25 22 20
7 5 2 3 2 5 4 3 1 1 3 2 4 3 4 6 4 3 3 3 4 3 4 5 1 3 1 5 3 0 1 2 2 1 5 7 7 5 6 8 13 20 25 28 29 32 33 34 33 33 36 37 34 33 33 34 39 44 46 44 42 41 40 40 39 39 40 39 40 43 42 40 37 38 40 38 32 29 28 28 28 28 28 26 23 20
8 4 0 2 3 2 1 1 3 4 3 3 4 3 2 3 4 4 4 3 3 2 5 3 1 3 1 4 3 3 5 3 3 3 3 6 8 7 5 4 4 8 15 21 24 27 29 30 30 30 33 35 34 34 34 35 40 44 46 44 42 41 41 41 41 41 41 41 41 42 42 41 39 41 43 41 36 34 31 29 29 29 28 27 24 22
5 2 3 4 2 4 4 2 4 6 5 5 4 4 3 2 3 2 3 2 1 3 2 3 3 1 3 6 4 4 5 6 3 1 3 6 9 11 9 8 7 6 5 9 15 20 24 28 30 32 33 34 34 35 35 37 41 44 44 44 41 39 40 42 42 42 41 40 41 41 42 42 41 42 42 38 36 35 32 30 30 30 29 28 27 25
4 4 7 5 3 5 4 3 3 4 4 4 3 3 2 2 3 1 3 1 1 3 2 4 3 1 3 5 4 5 6 6 7 6 5 6 9 11 10 9 10 9 7 5 8 12 17 23 28 31 32 33 34 36 36 37 40 42 43 43 41 38 38 41 42 42 42 42 42 42 42 43 42 43 42 37 34 33 32 31 31 31 30 29 28 25
2 3 4 2 3 5 3 2 1 1 1 1 3 4 2 3 3 2 2 1 2 2 3 4 1 2 2 3 4 5 6 6 9 8 3 4 7 8 10 11 12 11 9 8 7 8 12 16 21 26 30 33 35 36 37 38 39 42 43 42 39 37 37 39 41 41 42 43 44 42 42 44 45 44 43 38 34 32 32 33 33 32 31 31 28 24
2 4 6 3 5 3 4 2 2 4 2 2 2 4 1 2 3 2 2 3 2 1 2 2 2 3 4 5 4 1 1 1 4 4 2 4 5 7 9 11 11 12 12 11 9 8 9 12 15 20 25 30 34 36 38 39 39 41 42 41 39 37 37 39 40 40 40 41 43 42 42 44 45 45 43 40 35 32 32 35 35 33 33 32 28 24
2 4 6 5 4 3 3 3 1 2 0 1 2 1 2 3 5 4 1 1 4 2 2 2 2 4 4 6 5 5 5 4 3 3 4 4 3 4 7 9 10 11 12 12 12 10 10 11 13 16 20 26 31 34 36 38 39 41 42 42 41 41 41 41 41 41 40 39 40 41 41 43 44 44 43 41 37 33 33 34 35 35 34 33 29 25
0 4 5 4 3 6 5 3 2 3 2 2 1 2 2 1 3 4 2 3 4 1 3 2 2 4 2 3 6 8 6 3 2 1 3 6 4 2 5 8 9 11 12 14 14 13 12 11 12 14 17 20 24 29 32 34 36 39 42 44 43 44 44 43 44 43 41 40 40 41 41 41 42 42 42 40 38 35 34 35 35 36 35 33 30 27
1 3 5 2 2 8 7 5 3 5 4 3 2 2 2 2 1 1 2 0 1 1 3 3 3 3 2 4 6 8 6 6 5 2 1 3 4 6 7 9 10 11 14 16 17 17 16 14 14 15 16 18 21 24 28 30 33 37 41 44 45 45 44 44 46 45 43 41 41 42 42 41 41 42 42 41 38 37 37 36 36 36 36 33 31 29
0 0 4 4 2 5 5 4 1 5 6 3 2 2 2 3 2 1 1 2 1 1 2 3 3 3 4 5 4 6 7 6 7 6 3 2 2 6 9 11 12 13 16 19 20 21 20 18 18 17 17 17 18 21 23 27 32 35 38 41 44 45 44 44 46 47 45 42 42 42 42 42 41 41 42 41 39 39 38 36 36 37 37 35 33 31
1 1 3 5 4 3 2 1 2 1 2 3 4 4 3 2 1 0 1 1 2 2 1 1 3 5 5 4 5 7 8 6 6 6 6 5 6 7 11 14 15 17 20 24 26 26 26 25 23 21 20 19 18 19 20 23 28 33 37 39 42 44 45 45 45 46 45 42 41 42 43 44 42 41 42 41 40 39 35 31 31 35 37 37 36 34
1 1 1 4 4 3 3 4 4 4 2 2 1 2 1 1 2 2 1 2 1 1 2 1 3 6 5 3 4 4 3 4 6 6 6 11 13 13 15 18 20 21 24 28 31 32 32 31 29 27 25 22 20 19 19 20 26 32 36 38 41 43 45 46 45 45 43 41 40 41 43 45 45 43 42 41 40 40 36 31 30 33 35 36 36 35
1 2 0 3 3 5 8 6 1 4 3 4 3 2 2 2 3 4 1 2 2 1 1 2 1 6 5 2 1 2 3 7 12 11 12 18 22 21 21 22 23 25 26 29 33 36 37 37 36 34 31 27 24 22 21 20 22 29 35 38 40 43 45 47 47 46 44 42 41 40 42 45 47 45 44 41 40 41 39 36 35 35 35 34 33 34
1 2 1 3 3 4 6 5 4 3 4 5 3 3 3 2 2 3 3 2 0 1 0 1 2 6 5 2 2 2 10 16 17 18 19 24 30 30 29 30 30 31 32 32 34 38 40 41 41 39 37 33 30 27 24 23 22 24 32 37 40 42 45 46 47 48 47 45 44 43 42 45 47 47 45 41 40 40 39 38 38 37 35 33 32 33
1 1 1 2 3 3 4 4 4 4 4 3 2 3 3 3 2 1 1 2 1 2 3 2 4 5 4 4 6 10 14 14 17 22 23 24 29 33 33 33 33 33 34 34 34 35 38 41 43 43 42 39 36 33 30 27 25 23 27 35 39 42 44 45 47 48 49 48 47 45 44 46 47 48 47 42 40 41 39 37 38 37 35 34 33 33
0 1 0 1 1 1 2 2 1 2 3 1 1 3 3 3 3 2 1 2 0 1 2 3 5 9 7 5 9 11 11 13 19 24 24 24 26 31 32 34 35 34 35 35 35 34 35 38 41 43 44 43 41 39 36 33 30 26 25 31 37 41 43 44 46 47 48 48 46 44 45 46 48 49 48 42 41 43 40 37 37 36 35 34 34 33
2 1 2 3 3 3 4 4 1 2 2 2 1 3 3 2 3 2 1 1 0 2 3 5 8 15 14 7 8 11 12 14 16 19 22 23 26 30 33 36 37 37 37 37 37 37 36 37 40 43 44 45 44 43 41 39 35 29 26 27 34 40 43 45 45 46 47 47 44 42 44 47 50 50 47 42 42 43 42 40 40 38 35 35 35 34
2 1 2 4 5 6 6 6 3 2 2 2 3 3 3 3 3 2 1 1 0 1 4 4 5 13 17 13 14 16 15 13 14 18 24 27 29 33 36 38 40 40 40 38 38 39 39 39 40 42 44 45 45 45 44 42 38 33 29 27 30 38 43 45 46 46 46 46 43 41 43 46 49 48 45 42 43 44 43 43 43 40 37 36 34 32
2 1 2 3 4 6 6 6 6 3 1 2 3 3 4 5 4 2 2 3 2 3 6 7 8 13 17 17 17 16 15 15 18 24 29 33 35 37 38 39 41 41 42 41 40 40 41 41 41 41 44 45 44 45 45 44 42 38 34 30 29 35 41 44 46 46 46 45 44 43 42 43 46 47 45 44 44 43 42 41 41 39 38 36 33 31
2 1 2 3 5 6 5 4 3 2 2 4 3 3 4 5 5 5 5 6 6 8 10 11 14 16 16 15 15 16 20 23 26 30 33 34 36 37 37 38 40 42 44 44 43 42 42 44 44 43 44 45 45 45 46 45 43 41 38 34 30 32 38 42 45 45 45 45 44 44 44 44 45 46 46 45 44 42 40 39 39 39 38 36 34 33
2 2 5 4 4 4 4 2 1 2 4 6 4 3 3 5 5 4 5 5 6 8 10 11 13 15 13 10 12 20 27 28 28 30 33 35 36 37 37 38 40 43 45 46 46 45 45 46 47 45 45 46 46 46 45 46 44 42 40 37 32 30 34 41 44 45 45 45 44 46 47 47 47 46 45 44 43 41 39 38 39 40 37 36 35 34
3 2 3 4 3 3 3 2 1 4 6 5 8 8 6 6 5 5 6 6 6 8 10 10 9 9 9 10 15 22 25 24 24 27 31 35 39 41 41 44 46 47 48 48 48 48 47 47 48 48 48 48 47 46 45 45 44 42 41 39 35 31 30 37 44 45 46 45 45 47 47 45 45 43 40 40 40 40 39 38 39 40 38 36 35 32
2 2 2 3 2 3 5 5 1 3 4 3 7 7 5 6 9 9 7 7 8 6 6 7 7 9 12 14 17 21 20 19 23 28 32 37 42 45 46 48 51 52 53 53 51 50 49 50 50 50 50 49 48 46 46 46 45 43 41 39 37 32 29 33 41 46 48 47 47 48 48 46 44 41 37 35 33 34 36 38 40 41 39 36 33 30
2 2 1 3 2 3 7 6 2 3 3 1 3 4 4 6 10 11 11 13 10 5 5 7 10 13 15 14 16 19 22 27 32 35 39 43 45 47 48 51 53 54 54 54 54 53 53 52 51 51 51 51 49 47 46 45 44 43 42 39 37 34 31 31 37 44 47 48 47 47 47 47 46 44 41 36 31 30 33 37 41 42 40 37 33 31
2 2 1 2 1 2 5 4 3 3 1 2 4 5 5 7 8 11 14 13 8 6 6 9 12 15 17 20 24 27 31 38 42 41 44 48 48 47 48 50 53 55 55 54 54 54 54 54 53 52 51 51 50 47 45 45 45 43 42 39 37 35 32 30 34 41 45 46 46 45 44 44 43 44 46 44 40 37 36 39 41 40 38 36 34 32
2 2 1 2 2 1 3 3 2 1 1 3 4 4 5 5 6 10 12 9 5 4 5 9 14 17 20 27 32 34 38 42 40 39 42 43 42 42 44 47 51 54 56 56 56 55 56 56 55 53 52 51 49 47 45 46 46 44 42 40 38 36 34 29 31 39 44 45 45 45 44 42 39 39 41 41 39 37 39 42 42 37 35 35 32 29
3 2 1 2 2 2 2 3 1 1 1 3 5 5 5 6 6 5 7 10 7 2 4 12 17 19 22 29 35 38 40 35 26 24 30 33 36 41 45 47 49 51 53 54 55 55 55 56 57 54 51 50 49 48 47 47 47 45 43 41 39 37 34 29 28 35 41 45 46 44 42 41 38 36 36 35 33 34 38 42 42 37 34 34 31 28
4 3 2 2 2 2 1 2 2 2 1 3 7 8 9 13 9 3 4 8 3 3 13 18 17 19 21 25 33 37 33 23 12 13 27 39 44 48 49 46 44 44 45 47 48 50 50 51 55 54 50 49 49 49 47 46 46 45 44 42 40 37 34 30 28 32 38 42 44 41 38 39 40 39 38 37 35 34 36 40 42 38 34 32 29 26
5 3 3 4 3 3 2 1 1 0 1 4 7 8 15 19 9 3 3 5 2 12 26 22 16 21 23 26 33 30 20 13 9 16 35 48 50 50 48 43 40 40 41 41 42 44 43 42 47 49 48 48 49 48 46 45 44 44 45 43 40 38 35 30 29 32 36 38 39 37 35 36 40 42 42 40 36 35 36 40 41 37 32 29 25 23
5 3 3 4 3 3 2 1 1 1 2 5 7 10 19 20 7 1 3 6 10 24 32 25 22 27 29 32 32 21 12 12 15 27 46 53 51 51 46 40 39 39 38 38 35 34 33 32 36 42 45 46 46 44 43 43 44 44 45 43 40 37 34 31 31 32 34 35 36 35 33 34 38 41 41 40 37 36 38 40 38 34 30 26 24 22
2 2 2 2 1 2 2 1 2 3 3 4 8 15 21 18 7 3 5 12 21 31 33 30 30 33 33 34 27 17 20 30 34 42 52 52 50 50 43 38 40 38 34 32 28 23 22 23 28 34 39 40 40 39 40 43 44 45 44 42 40 37 33 32 33 33 32 33 34 33 32 34 37 40 41 40 38 38 38 37 34 30 27 24 22 21
2 2 1 1 1 2 1 1 3 3 3 6 14 17 16 10 4 4 12 21 27 31 32 32 33 34 35 35 31 29 36 43 44 46 49 50 51 48 40 39 41 37 32 29 24 17 15 17 22 26 30 31 33 36 39 41 42 43 42 41 39 34 32 34 37 36 33 34 34 32 30 32 35 38 40 39 37 36 35 32 28 25 24 22 22 22
1 1 2 2 1 1 1 2 3 1 5 13 16 10 6 5 6 14 22 26 28 29 31 32 33 36 37 36 37 39 42 43 45 47 48 51 51 45 38 37 37 34 31 26 19 14 11 11 15 18 21 25 28 33 37 39 39 39 39 39 36 31 31 36 39 38 35 35 35 34 31 31 31 33 35 35 34 32 30 27 25 23 22 21 21 21
0 1 1 1 1 1 2 3 2 4 11 17 13 4 5 10 16 21 24 25 27 29 29 30 35 39 40 38 39 41 41 42 46 48 49 51 50 44 38 36 34 32 30 25 18 12 7 4 10 12 13 17 24 31 33 34 35 35 36 35 31 29 31 36 38 38 36 35 35 35 34 32 31 31 31 30 29 27 25 24 23 22 21 20 21 21
2 2 2 1 2 1 1 4 7 10 16 18 11 9 14 17 20 24 25 24 27 30 29 30 35 39 40 39 39 40 41 43 45 47 49 51 49 44 37 34 33 31 28 26 20 13 7 2 6 10 8 8 15 27 31 31 33 34 33 30 27 29 33 36 36 37 35 34 34 34 32 31 30 30 29 27 26 25 24 23 22 21 21 21 21 20
2 2 3 1 3 3 3 8 9 12 17 16 11 12 16 19 21 25 26 26 28 30 30 32 35 36 37 37 38 39 42 43 45 47 49 50 49 44 39 35 32 30 29 27 23 16 8 5 8 12 12 10 7 19 26 28 30 30 27 23 22 26 31 33 34 34 34 33 33 32 30 30 29 27 25 24 22 22 21 20 20 19 19 19 18 18
2 2 1 1 1 1 2 6 8 12 16 14 12 13 16 19 22 25 26 26 28 30 32 33 33 33 34 36 38 40 43 44 45 46 47 49 48 45 41 37 33 31 30 28 25 21 14 8 8 12 12 8 3 15 20 20 23 24 22 20 20 22 26 28 30 31 31 32 32 31 30 29 27 26 24 23 22 20 19 18 18 18 17 17 16 16
1 1 1 1 1 1 4 8 12 16 13 9 11 15 17 20 23 25 25 26 27 29 32 33 32 31 33 36 37 40 42 45 46 45 45 48 49 44 41 40 37 32 30 29 27 25 22 18 14 12 10 8 5 13 16 17 19 20 20 21 21 22 24 26 27 29 30 30 30 30 29 29 28 27 26 24 23 23 22 21 20 20 19 18 17 17
2 1 1 1 1 3 5 8 11 11 8 8 13 17 17 20 24 25 27 28 28 29 32 33 33 32 32 34 36 39 42 45 46 45 43 45 48 46 41 41 40 36 32 30 28 25 23 22 20 17 14 10 6 10 14 16 16 17 17 19 20 22 24 24 26 27 28 28 29 29 30 29 28 27 26 26 25 25 24 24 23 23 22 20 19 18
3 2 1 2 1 2 4 5 5 4 5 11 16 17 16 19 23 26 29 30 29 30 31 32 33 33 34 34 35 38 41 43 45 46 43 43 46 46 43 42 43 40 35 30 25 23 22 22 20 16 13 10 6 7 10 12 13 13 14 15 15 17 19 21 23 24 25 26 28 30 31 30 29 29 28 27 27 27 26 26 25 25 24 23 21 20
5 4 4 3 2 5 8 8 7 4 7 11 15 15 15 19 22 25 29 30 28 28 30 30 31 32 34 35 35 37 39 42 43 45 45 44 45 46 45 44 43 42 39 33 28 24 22 20 17 15 12 10 6 4 7 9 11 12 13 13 14 15 16 17 19 21 23 24 26 27 29 29 29 29 29 29 30 29 29 28 27 26 26 25 24 23
Wind_Direction
58 58 335 257 256 260 245 212 210 227 198 172 177 192 230 257 278 271 254 259 241 161 252 217 167 201 212 231 251 213 202 210 217 214 203 206 205 201 202 203 204 207 216 224 221 219 218 218 219 219 221 222 220 214 212 213 212 217 223 221 219 220 223 225 223 222 223 223 220 218 217 215 212 208 207 207 205 203 199 194 195 201 203 200 201 200
54 55 294 265 257 257 252 224 209 242 233 200 207 230 262 232 251 268 255 268 241 162 278 183 159 210 219 230 243 172 187 204 208 204 195 204 209 207 206 207 208 210 216 221 221 220 218 218 219 218 220 220 220 216 213 216 215 216 223 225 223 222 223 225 226 225 224 223 220 218 218 215 211 208 208 209 208 206 202 199 199 202 202 202 203 200
27 16 281 289 288 280 259 216 195 224 229 205 187 173 254 245 260 285 287 308 349 144 270 205 175 234 239 240 241 178 184 205 212 211 201 201 206 208 209 212 214 213 215 218 219 219 218 218 217 217 219 219 219 216 217 224 224 222 225 227 226 225 226 227 227 225 223 222 218 217 218 215 211 211 212 213 212 212 211 205 202 205 205 205 207 203
11 258 273 303 328 1 14 330 132 164 222 177 144 136 233 262 281 277 297 332 354 65 182 155 177 281 288 270 255 213 207 215 220 221 214 205 205 209 211 215 218 215 213 212 213 216 216 216 216 217 218 218 219 218 219 224 225 225 226 226 226 226 228 230 230 226 221 221 220 218 219 215 213 214 214 214 213 216 219 211 204 209 207 206 210 207
240 257 280 320 353 31 52 28 62 89 1 317 168 157 252 293 270 226 289 336 348 7 57 82 52 317 330 283 256 253 237 240 234 227 227 217 212 214 215 216 219 218 215 209 208 210 211 213 216 218 218 217 218 221 223 225 226 228 227 226 227 227 227 228 229 226 220 218 219 218 218 215 215 215 213 215 216 217 221 215 207 210 210 206 209 210
254 265 298 347 6 36 68 44 35 92 26 337 228 205 248 288 285 273 328 12 39 360 340 62 57 288 322 277 252 307 316 248 259 233 227 225 220 217 216 217 218 217 215 212 210 208 207 212 217 220 221 219 218 221 224 227 229 231 231 229 227 226 226 226 226 224 220 219 219 216 215 213 213 214 216 222 224 223 222 216 209 211 211 207 208 210
264 303 10 19 23 39 52 40 351 113 81 359 236 197 245 303 284 278 357 53 90 265 290 63 132 242 320 292 248 312 303 242 287 294 243 224 220 221 219 219 218 215 213 211 211 210 208 212 216 221 225 224 222 223 225 227 229 231 232 230 228 226 225 224 222 220 218 219 219 217 214 213 216 223 229 231 230 231 227 217 212 214 213 209 210 213
273 341 9 18 39 50 40 18 281 125 99 313 249 175 326 338 287 234 82 77 177 243 327 15 91 135 308 272 253 335 192 230 275 282 268 236 219 219 222 223 221 219 215 209 209 214 216 218 219 221 225 228 227 225 226 227 228 229 229 229 229 230 229 225 220 217 218 217 218 221 219 217 223 233 241 236 229 232 227 218 215 216 214 211 211 216
236 323 341 11 23 27 359 237 249 134 106 270 252 49 352 4 79 84 89 88 359 37 342 333 25 110 269 280 305 35 122 204 254 257 270 271 251 232 227 227 226 225 221 214 212 216 220 224 226 224 227 233 234 231 229 229 229 229 229 229 229 230 231 229 224 221 222 219 219 226 227 226 229 235 241 238 230 231 225 217 216 217 215 213 212 218
244 243 228 99 53 254 246 248 236 149 248 283 150 73 34 51 54 62 81 90 39 50 259 295 355 90 267 294 316 28 91 187 247 258 277 290 289 262 241 235 230 228 226 222 220 220 223 228 230 229 230 234 238 239 237 233 231 230 229 228 228 229 229 231 230 227 227 223 219 223 227 229 230 233 240 238 229 228 224 217 216 218 216 214 212 218
285 280 206 136 205 232 238 259 241 169 275 341 65 50 26 24 18 38 49 74 57 13 256 262 353 102 277 287 276 257 100 178 171 330 304 307 319 297 267 261 246 239 234 229 227 225 226 229 230 228 229 232 236 238 237 232 231 231 229 228 228 228 228 230 232 229 229 228 226 225 225 228 230 233 240 240 233 229 226 221 219 218 218 216 213 220
328 2 69 272 270 280 327 344 1 350 340 58 65 46 41 348 360 26 358 34 79 281 260 275 2 105 169 261 246 227 265 272 126 86 323 309 330 348 2 359 315 264 250 243 237 232 229 230 230 229 231 233 233 234 234 231 229 229 229 228 227 229 229 230 232 232 231 231 232 230 228 229 231 234 238 240 242 238 230 226 225 220 219 219 216 219
343 2 321 318 329 16 37 38 347 349 13 49 56 56 71 345 8 17 317 6 136 239 274 342 355 105 210 244 242 224 255 270 234 221 323 311 326 348 9 21 15 359 310 269 256 245 237 233 233 234 234 233 232 231 232 231 230 229 228 228 228 229 230 230 231 232 233 234 234 232 230 231 233 235 236 238 245 245 236 233 233 227 222 220 217 218
341 312 340 7 360 4 57 92 1 330 358 34 71 86 96 102 66 294 274 349 261 253 318 332 331 304 276 268 236 206 223 250 266 285 320 327 334 345 357 7 5 3 4 328 289 269 255 244 239 238 238 236 234 231 227 227 231 232 230 230 229 230 231 231 232 232 234 236 236 234 233 234 234 235 235 234 238 243 243 240 240 237 230 224 222 221
26 311 330 22 320 340 32 118 153 152 20 5 156 134 117 141 136 204 218 175 226 266 319 319 316 173 211 232 208 214 234 256 277 287 323 3 353 358 3 8 7 3 5 352 320 287 270 260 251 246 244 241 238 235 229 227 231 233 233 232 230 230 231 232 232 232 234 236 237 235 234 236 235 236 237 236 234 238 244 245 243 242 237 231 227 225
71 259 260 284 275 303 2 303 174 108 56 282 161 96 49 186 141 108 165 172 159 11 315 292 234 206 229 265 265 267 6 320 293 302 59 58 29 22 14 14 10 4 4 359 341 308 279 268 260 253 250 246 242 239 234 230 231 233 234 233 230 228 230 233 234 234 236 236 237 236 234 235 236 236 238 238 235 234 240 246 246 245 242 238 233 230
25 278 277 326 299 271 354 309 228 84 160 279 63 88 255 183 121 101 150 40 66 73 287 281 268 295 313 298 312 26 52 63 53 11 349 347 15 23 11 14 5 353 354 354 349 334 308 286 272 261 255 251 246 243 239 236 235 235 235 233 230 228 229 233 237 238 239 238 237 236 235 234 235 237 238 238 237 235 237 243 245 246 246 243 238 233
101 286 293 350 317 294 337 20 31 33 95 92 76 213 240 58 82 103 132 9 42 120 278 307 267 296 330 288 320 354 6 359 28 47 319 317 326 334 352 3 352 340 339 338 339 339 332 316 299 284 270 261 254 251 248 244 241 238 237 235 233 233 232 235 238 238 238 239 238 236 234 234 235 237 238 239 239 240 240 242 243 245 245 244 239 234
176 296 294 306 278 300 338 57 38 349 30 95 170 195 102 83 359 36 99 20 31 239 295 317 289 272 207 221 296 319 324 320 317 324 295 274 281 303 333 351 346 339 335 331 331 331 332 331 324 314 295 276 265 260 257 254 248 242 239 238 237 238 238 238 238 236 235 236 237 236 234 234 234 235 237 239 240 242 242 242 243 243 244 242 238 234
200 348 287 285 299 312 348 48 27 326 350 21 42 17 45 126 162 207 134 154 170 212 284 315 318 270 224 223 248 275 287 297 304 314 314 285 309 331 343 351 349 342 335 331 329 325 324 325 326 329 322 301 281 268 263 259 254 248 245 242 241 240 238 237 237 235 233 233 233 234 232 233 234 236 238 240 241 243 245 246 246 245 243 241 237 233
19 49 274 290 325 349 353 52 154 151 358 4 25 8 337 360 58 82 45 80 127 157 176 291 303 270 245 215 209 252 286 303 312 319 320 327 345 342 335 336 335 332 328 325 323 320 317 315 315 318 322 318 304 287 272 261 257 254 250 246 244 241 238 236 235 234 234 233 233 234 232 231 234 237 238 241 243 243 242 243 246 246 244 242 239 235
41 58 280 304 335 338 287 262 186 155 117 104 83 24 346 348 37 79 346 332 43 116 168 168 283 270 255 225 226 262 322 348 334 323 312 316 323 324 322 324 324 322 322 321 318 314 310 308 307 306 308 311 311 306 295 275 260 256 253 248 245 242 239 238 236 235 235 235 235 236 235 232 234 238 240 241 243 242 236 231 234 241 243 241 240 239
143 116 306 289 289 284 292 300 171 152 116 95 86 59 90 82 74 102 186 283 354 344 195 120 284 271 270 266 162 94 19 337 325 323 322 320 320 320 320 321 320 317 316 314 311 307 304 302 300 299 298 298 299 303 307 299 275 258 253 250 245 241 240 240 239 239 238 237 238 239 238 234 232 237 241 241 240 240 237 232 233 238 241 239 238 237
56 69 359 298 298 299 307 346 54 81 77 69 44 40 69 60 69 130 179 184 145 282 239 78 282 269 271 255 169 349 334 331 330 331 330 323 318 317 316 314 312 310 307 305 303 301 299 296 294 292 291 290 290 291 296 303 296 270 254 250 246 243 242 241 240 240 240 239 240 240 238 235 232 234 239 240 239 238 238 238 238 239 239 238 237 235
350 359 45 353 333 333 339 360 10 12 40 50 354 22 53 49 42 61 111 83 38 237 170 160 251 254 256 297 320 331 335 331 324 323 321 315 311 311 311 310 308 306 304 301 299 297 295 294 291 288 286 284 284 285 286 290 297 288 263 250 247 245 243 240 239 239 240 240 240 240 237 235 232 233 236 236 236 237 236 238 241 241 240 240 240 238
72 192 138 10 311 299 312 310 302 325 345 357 19 28 39 45 31 15 74 90 331 251 180 194 263 274 280 317 322 322 328 319 312 313 311 307 306 307 307 307 305 303 301 299 298 296 293 292 290 286 283 281 279 279 281 282 287 291 278 256 247 245 243 240 238 238 238 238 238 238 237 236 232 232 233 233 232 234 235 235 237 238 239 241 241 239
100 150 214 215 230 248 267 274 192 151 283 295 30 21 18 36 27 29 103 143 225 294 271 242 263 283 291 309 313 309 315 311 306 308 308 307 307 306 305 304 301 299 297 295 295 293 291 290 288 286 283 280 277 275 276 279 280 284 284 268 251 244 242 239 238 237 237 236 235 234 236 238 236 232 231 230 229 232 234 234 235 234 234 237 237 235
102 321 247 210 237 252 260 281 284 196 253 313 14 6 344 358 26 58 129 210 219 302 279 260 272 287 292 302 307 306 309 306 304 308 309 309 307 305 303 301 299 297 295 293 291 290 288 286 285 285 283 280 277 273 272 274 275 275 277 276 260 246 240 238 236 236 236 235 233 233 235 239 240 236 232 230 229 230 232 234 237 237 236 237 237 235
127 262 251 219 269 273 266 285 294 279 281 47 38 356 337 344 357 360 252 233 216 240 265 284 292 285 287 295 299 299 303 303 303 304 304 304 303 301 300 298 296 295 293 291 288 286 285 283 280 280 280 279 277 273 270 270 270 268 267 272 266 251 242 238 235 234 234 233 234 234 234 236 238 237 233 232 232 233 235 235 236 237 238 237 238 239
108 302 309 298 297 297 284 271 285 332 73 87 56 359 344 329 307 286 265 251 245 249 260 278 284 279 278 283 290 298 302 301 300 300 299 298 297 297 296 294 293 292 290 288 286 284 281 280 278 276 275 275 274 271 268 266 266 265 263 265 266 256 245 239 235 232 231 231 232 234 234 234 234 232 230 231 233 237 240 240 237 236 237 235 235 241
40 352 335 328 308 303 301 261 170 113 124 111 69 26 350 331 312 290 281 274 269 267 266 272 277 277 277 284 297 303 303 301 300 299 298 299 299 298 296 292 290 288 287 285 284 282 280 277 276 273 270 269 268 267 266 263 262 262 261 261 262 260 249 239 235 232 229 228 229 231 232 232 232 230 227 228 232 236 239 242 241 238 236 233 232 238
5 341 326 335 327 299 316 352 87 154 152 102 38 11 347 344 337 308 291 281 278 282 283 283 279 278 291 307 305 300 298 297 296 297 299 301 302 300 297 294 292 289 287 285 282 279 277 275 273 271 269 266 264 263 261 259 258 259 259 257 257 260 254 241 234 231 228 226 226 227 228 226 226 226 226 228 234 238 239 244 246 243 237 232 231 235
355 349 331 340 336 286 310 342 38 147 142 59 5 340 315 325 324 310 297 286 277 274 282 288 280 283 298 307 303 300 301 299 297 299 301 300 298 296 293 291 289 288 287 285 283 279 276 273 271 269 267 265 262 259 256 255 254 253 254 254 254 258 259 246 235 231 229 227 226 226 227 225 223 221 223 228 236 243 246 248 248 247 243 236 233 235
4 25 357 341 335 294 315 337 45 97 82 28 294 263 252 303 314 308 302 298 291 271 251 262 274 286 295 297 296 296 297 295 295 297 297 294 291 290 289 288 287 285 284 282 281 279 276 273 270 267 265 264 261 257 253 251 250 248 247 250 251 254 257 251 239 232 230 228 228 228 228 227 224 221 223 229 238 246 252 251 246 244 243 238 233 232
10 25 14 330 305 289 321 353 56 75 100 221 250 244 235 255 276 289 292 285 276 267 262 269 282 291 295 296 296 294 292 293 294 294 293 291 288 285 283 284 285 284 282 280 277 276 275 272 269 265 263 261 259 256 251 247 246 243 240 243 246 248 253 253 243 234 230 229 229 228 227 226 224 223 225 231 238 243 249 249 243 238 237 235 232 232
28 13 24 330 310 312 342 3 61 108 218 255 275 275 261 261 290 312 307 298 300 295 283 293 298 299 301 301 299 297 297 297 295 292 291 292 291 288 283 282 282 282 280 278 275 272 271 269 267 263 260 259 257 254 248 242 240 238 236 236 239 242 247 252 245 234 230 228 229 229 228 228 229 227 227 231 236 238 241 243 239 234 234 234 234 233
80 58 16 343 353 35 353 316 273 194 338 342 329 325 328 315 309 313 307 307 310 291 308 316 311 307 306 304 304 306 306 304 297 292 298 303 304 302 297 292 289 285 282 280 277 273 269 265 263 260 257 254 252 250 245 238 235 234 232 232 234 236 240 247 244 234 230 229 228 227 227 230 232 229 226 227 231 233 236 238 236 234 235 234 233 231
75 74 71 44 28 35 17 326 342 27 64 337 324 331 339 325 305 228 263 294 282 314 327 324 312 307 308 308 310 314 313 310 300 302 317 320 318 314 310 306 302 295 289 286 283 279 274 266 259 255 251 248 247 246 242 234 230 230 229 229 230 231 235 241 240 234 230 229 228 226 224 228 230 228 226 226 228 230 233 234 233 231 229 227 228 231
28 46 75 70 35 15 35 36 357 69 190 311 316 325 335 331 321 183 249 274 272 330 328 324 311 311 315 315 316 317 317 313 306 314 322 324 322 321 319 316 313 309 301 294 287 281 278 270 260 253 246 242 242 242 237 229 226 227 226 225 226 228 232 236 234 230 227 225 225 224 220 221 223 223 225 225 224 226 229 229 228 225 223 224 227 232
7 5 29 43 30 4 13 356 283 223 251 305 315 330 338 335 332 121 314 307 325 329 326 322 317 317 318 319 318 319 320 315 311 316 323 326 327 327 328 326 324 320 312 306 296 282 275 271 261 249 239 234 235 236 231 223 222 224 222 220 221 224 228 230 227 223 221 221 222 222 219 218 218 219 219 219 220 225 228 226 224 222 223 226 228 231
351 322 1 44 28 338 355 335 296 270 254 301 334 342 341 336 333 28 338 312 316 320 321 321 319 317 319 319 318 315 314 314 314 318 324 330 332 333 336 337 334 329 322 317 310 291 274 267 257 244 234 230 230 228 221 217 218 221 219 217 219 220 222 222 219 215 216 218 218 217 216 215 216 216 216 215 218 223 224 221 220 221 223 226 230 235
337 302 326 47 4 339 347 278 308 274 254 328 348 348 347 349 353 324 307 305 310 314 318 321 319 317 320 320 317 315 316 319 322 326 331 336 338 338 343 346 343 339 335 333 330 314 289 268 254 240 229 223 220 216 213 213 216 218 217 214 214 214 214 216 214 211 212 214 211 208 209 211 213 215 216 216 216 217 217 217 218 220 222 226 231 237
349 343 335 340 332 341 326 340 2 307 296 334 350 357 6 8 324 304 304 309 315 317 319 320 320 321 322 321 320 322 322 325 331 335 339 342 344 346 351 354 352 347 345 347 346 335 311 265 240 226 215 211 209 209 210 212 214 216 214 210 207 207 210 212 210 207 208 211 209 203 200 201 204 207 211 212 211 210 210 211 212 215 219 223 228 232
310 106 344 295 282 350 22 4 352 252 295 325 341 332 305 321 320 315 313 312 317 323 324 322 322 325 326 325 326 327 329 332 337 342 346 347 348 352 357 1 2 358 355 359 1 359 353 272 223 209 205 207 210 212 211 209 210 211 206 203 204 206 207 207 206 206 208 210 209 204 200 198 198 199 200 201 201 202 203 205 209 215 219 223 227 231
224 183 150 181 259 263 203 243 260 278 303 321 330 314 315 326 333 331 324 317 320 326 328 325 325 328 330 331 332 332 335 339 342 347 351 351 351 356 2 6 10 9 7 7 6 5 6 321 223 213 226 240 222 214 210 206 205 204 199 198 202 200 198 199 202 205 207 208 207 206 203 199 196 194 194 194 195 200 205 210 214 218 222 226 229 233
243 173 134 165 274 290 261 251 266 298 316 323 327 324 328 336 342 340 335 331 331 334 335 333 331 330 333 338 339 338 340 344 347 350 354 354 355 359 5 10 14 16 15 15 14 8 353 301 252 240 259 285 239 202 200 201 202 198 190 187 186 186 189 195 200 203 205 205 204 201 198 194 191 190 192 196 201 208 214 217 219 221 224 228 232 237
279 161 139 269 295 357 296 264 286 313 317 318 323 328 337 345 348 347 345 341 340 340 341 340 338 337 342 347 346 343 345 349 352 354 357 358 358 1 8 12 16 18 19 22 22 19 13 349 304 282 286 305 195 179 186 193 195 190 180 173 169 171 180 188 192 193 193 194 194 194 193 194 194 195 198 201 207 212 215 216 219 223 225 229 234 240
221 169 254 257 190 202 258 276 306 317 309 309 327 335 344 351 351 353 354 350 348 347 346 346 348 349 351 352 351 349 350 354 356 356 358 1 2 4 10 15 18 19 21 24 25 22 24 26 16 1 358 16 118 165 174 180 182 178 173 172 172 172 175 180 184 186 188 190 192 194 195 197 197 198 199 202 207 213 216 218 222 226 230 233 239 244
164 189 209 174 269 302 280 291 323 330 312 320 343 349 355 355 352 355 359 357 355 354 352 354 358 359 357 356 356 356 355 357 359 359 1 5 5 5 11 19 23 23 23 25 27 25 24 25 27 28 30 40 90 147 158 162 164 162 163 169 174 177 180 183 186 188 191 192 193 194 195 195 196 198 200 204 209 214 220 226 230 234 237 239 242 246
173 220 196 103 20 302 260 282 337 347 290 315 342 357 3 359 356 358 1 1 360 359 357 358 1 4 4 3 3 2 0 360 1 2 4 8 8 8 13 21 26 29 29 26 26 25 22 21 24 29 37 48 75 128 146 152 154 155 158 164 171 178 185 188 189 190 192 192 193 194 196 197 200 203 206 209 213 218 224 229 233 237 239 241 244 249
192 206 188 160 200 242 260 291 322 308 282 314 343 358 2 1 1 2 3 3 2 1 1 2 2 3 4 5 8 9 6 4 5 6 7 10 12 13 16 22 27 31 33 33 32 27 21 16 13 17 28 38 55 107 144 159 163 164 167 170 175 183 190 194 195 195 195 196 198 200 202 205 208 211 214 217 221 225 229 231 234 237 239 242 246 251
Height
1474 1476 1478 1478 1476 1474 1473 1474 1473 1473 1474 1474 1474 1473 1474 1474 1470 1464 1461 1459 1457 1458 1457 1458 1459 1458 1457 1456 1454 1456 1458 1458 1459 1460 1461 1461 1462 1463 1464 1466 1467 1468 1467 1469 1472 1475 1478 1482 1486 1490 1492 1493 1492 1495 1501 1503 1506 1508 1509 1511 1514 1517 1519 1519 1522 1524 1527 1529 1530 1532 1532 1533 1536 1537 1539 1540 1542 1544 1547 1548 1549 1550 1550 1551 1552 1553
1475 1478 1478 1475 1474 1472 1471 1472 1473 1473 1474 1474 1474 1474 1474 1474 1469 1460 1458 1458 1457 1458 1458 1458 1458 1457 1455 1453 1453 1455 1456 1456 1456 1457 1459 1460 1461 1462 1463 1465 1466 1467 1468 1469 1471 1473 1476 1480 1484 1488 1490 1490 1491 1494 1497 1500 1504 1506 1507 1510 1514 1516 1517 1518 1520 1522 1525 1527 1528 1529 1530 1533 1535 1536 1537 1539 1541 1543 1546 1547 1547 1548 1549 1550 1551 1552
1477 1478 1476 1473 1472 1471 1470 1471 1472 1472 1473 1473 1475 1474 1472 1471 1467 1460 1457 1457 1456 1456 1458 1458 1456 1454 1453 1452 1453 1455 1453 1453 1453 1453 1455 1456 1459 1460 1461 1463 1465 1467 1468 1469 1470 1472 1474 1477 1481 1486 1487 1488 1490 1493 1496 1499 1502 1504 1506 1509 1511 1513 1515 1516 1518 1521 1523 1525 1527 1529 1531 1534 1535 1536 1537 1538 1541 1543 1544 1545 1545 1547 1548 1549 1550 1551
1480 1477 1474 1472 1471 1469 1468 1470 1471 1471 1472 1473 1473 1472 1469 1468 1467 1461 1457 1457 1457 1456 1457 1458 1456 1454 1454 1452 1451 1453 1452 1451 1451 1452 1452 1454 1455 1457 1459 1461 1463 1464 1466 1468 1469 1471 1473 1475 1478 1482 1485 1487 1489 1492 1494 1497 1499 1501 1504 1506 1508 1511 1513 1515 1517 1519 1522 1524 1527 1530 1532 1535 1536 1536 1537 1538 1539 1541 1542 1543 1543 1544 1546 1547 1548 1549
1479 1475 1473 1472 1472 1469 1467 1469 1469 1468 1469 1470 1471 1469 1467 1465 1464 1462 1460 1459 1458 1458 1458 1457 1458 1456 1455 1453 1449 1450 1452 1450 1451 1452 1452 1453 1453 1455 1457 1459 1460 1462 1463 1466 1468 1470 1472 1474 1476 1479 1482 1485 1488 1490 1491 1493 1495 1498 1501 1504 1507 1509 1511 1513 1515 1518 1521 1524 1527 1529 1531 1534 1535 1535 1535 1535 1535 1537 1539 1540 1541 1542 1544 1545 1546 1548
1476 1474 1473 1472 1472 1470 1468 1469 1470 1469 1468 1469 1468 1466 1465 1464 1463 1462 1462 1461 1460 1461 1460 1460 1463 1461 1458 1455 1451 1451 1452 1450 1450 1451 1451 1452 1452 1453 1455 1456 1458 1460 1462 1464 1466 1468 1470 1473 1475 1478 1480 1483 1485 1486 1488 1491 1493 1495 1499 1503 1505 1507 1508 1510 1513 1516 1519 1522 1524 1527 1529 1530 1530 1531 1530 1530 1531 1534 1537 1538 1539 1541 1542 1543 1545 1547
1475 1474 1473 1472 1472 1471 1470 1470 1470 1470 1470 1469 1466 1464 1465 1464 1463 1462 1461 1460 1462 1464 1463 1463 1465 1464 1460 1454 1453 1454 1452 1449 1450 1450 1450 1451 1452 1452 1452 1453 1455 1458 1460 1463 1465 1466 1467 1470 1473 1475 1478 1480 1482 1483 1487 1490 1492 1494 1497 1500 1503 1504 1506 1508 1511 1514 1516 1519 1522 1524 1526 1526 1526 1527 1527 1528 1530 1533 1536 1537 1539 1540 1541 1542 1543 1545
1474 1473 1473 1472 1472 1472 1471 1470 1469 1469 1470 1469 1465 1464 1464 1463 1463 1463 1461 1460 1464 1465 1463 1465 1464 1465 1463 1455 1456 1459 1453 1450 1451 1449 1449 1449 1451 1451 1450 1451 1453 1454 1457 1460 1463 1464 1465 1467 1469 1472 1475 1477 1479 1481 1485 1488 1490 1492 1495 1498 1500 1502 1504 1506 1509 1512 1514 1516 1519 1521 1523 1524 1524 1525 1526 1528 1529 1533 1535 1536 1537 1538 1539 1540 1542 1543
1473 1473 1473 1472 1473 1473 1470 1469 1468 1468 1468 1466 1464 1465 1465 1464 1464 1464 1462 1462 1467 1466 1464 1467 1466 1467 1466 1457 1457 1460 1454 1453 1452 1449 1450 1450 1450 1451 1451 1451 1452 1453 1455 1458 1460 1461 1463 1464 1465 1468 1471 1474 1477 1479 1482 1485 1487 1489 1492 1494 1497 1499 1502 1504 1507 1510 1512 1514 1517 1518 1520 1521 1522 1523 1524 1526 1529 1532 1533 1533 1534 1536 1537 1538 1540 1542
1472 1472 1471 1473 1474 1473 1469 1468 1468 1467 1467 1465 1465 1466 1465 1467 1467 1467 1466 1463 1466 1468 1468 1471 1470 1469 1467 1457 1454 1456 1455 1456 1454 1451 1453 1451 1450 1450 1450 1451 1451 1452 1454 1456 1458 1459 1461 1462 1463 1465 1468 1471 1474 1477 1479 1482 1484 1487 1488 1491 1493 1496 1499 1501 1504 1508 1510 1512 1514 1516 1517 1519 1520 1522 1522 1523 1526 1529 1531 1531 1532 1533 1535 1536 1537 1539
1472 1469 1470 1472 1472 1471 1468 1468 1468 1468 1467 1465 1465 1465 1464 1468 1468 1468 1470 1466 1468 1473 1471 1473 1473 1470 1469 1460 1454 1456 1456 1455 1453 1452 1453 1452 1450 1449 1449 1450 1451 1451 1452 1454 1456 1458 1459 1461 1461 1463 1466 1469 1472 1475 1477 1479 1481 1483 1485 1487 1490 1493 1496 1498 1501 1504 1507 1510 1512 1513 1515 1516 1518 1520 1521 1521 1522 1525 1527 1527 1529 1531 1532 1534 1535 1537
1471 1469 1470 1471 1470 1470 1468 1468 1468 1468 1467 1466 1466 1466 1466 1470 1470 1469 1471 1469 1474 1478 1473 1474 1476 1472 1470 1462 1455 1457 1457 1455 1453 1451 1452 1452 1451 1449 1449 1449 1450 1451 1451 1452 1454 1456 1458 1459 1460 1462 1464 1467 1471 1473 1475 1477 1478 1479 1481 1484 1487 1490 1493 1495 1498 1500 1504 1507 1510 1512 1514 1515 1516 1517 1519 1520 1520 1522 1524 1525 1527 1529 1530 1532 1533 1535
1472 1470 1472 1471 1469 1470 1469 1469 1469 1468 1467 1466 1467 1469 1471 1477 1477 1476 1478 1478 1479 1478 1474 1476 1476 1472 1469 1459 1453 1457 1457 1454 1454 1453 1452 1452 1452 1450 1449 1449 1449 1450 1451 1451 1453 1454 1456 1457 1458 1460 1462 1465 1468 1470 1472 1474 1475 1477 1479 1481 1484 1487 1490 1493 1495 1497 1500 1504 1507 1510 1511 1513 1514 1515 1517 1519 1519 1520 1522 1523 1525 1527 1528 1529 1530 1532
1476 1473 1472 1471 1470 1470 1470 1472 1473 1471 1469 1468 1470 1472 1474 1480 1484 1485 1490 1490 1484 1478 1477 1480 1477 1472 1468 1458 1454 1458 1458 1455 1454 1454 1454 1452 1452 1451 1450 1450 1450 1450 1450 1451 1452 1453 1454 1456 1457 1459 1461 1463 1465 1467 1470 1472 1473 1475 1477 1479 1481 1484 1488 1490 1493 1495 1498 1500 1503 1507 1509 1511 1512 1513 1514 1517 1518 1518 1519 1521 1523 1525 1527 1528 1529 1531
1487 1480 1475 1473 1473 1471 1470 1471 1472 1472 1471 1472 1475 1474 1473 1477 1480 1483 1486 1485 1482 1480 1479 1479 1475 1470 1464 1457 1456 1457 1457 1456 1454 1454 1456 1454 1453 1453 1452 1451 1450 1450 1450 1450 1451 1452 1453 1455 1456 1458 1460 1462 1464 1466 1468 1470 1471 1472 1474 1476 1479 1482 1484 1487 1490 1492 1495 1497 1499 1503 1507 1508 1510 1511 1512 1514 1516 1517 1517 1519 1521 1524 1525 1527 1528 1530
1492 1486 1477 1474 1474 1472 1471 1470 1469 1470 1472 1476 1476 1474 1474 1475 1475 1483 1489 1487 1486 1485 1482 1479 1475 1470 1462 1454 1454 1457 1457 1457 1455 1453 1455 1455 1454 1454 1453 1452 1451 1451 1451 1450 1450 1451 1452 1454 1455 1457 1459 1460 1462 1464 1465 1467 1468 1469 1471 1473 1476 1479 1481 1483 1485 1488 1490 1493 1496 1499 1503 1505 1507 1509 1510 1512 1513 1515 1516 1517 1519 1522 1523 1525 1527 1529
1493 1486 1476 1474 1473 1470 1471 1470 1469 1471 1473 1475 1476 1474 1476 1476 1475 1482 1492 1495 1494 1488 1485 1484 1476 1469 1465 1455 1450 1455 1456 1457 1458 1456 1455 1455 1455 1455 1454 1453 1453 1452 1451 1451 1451 1451 1451 1452 1454 1455 1457 1458 1460 1461 1462 1463 1465 1466 1468 1471 1473 1476 1477 1479 1481 1484 1487 1490 1493 1496 1499 1501 1504 1506 1507 1508 1510 1512 1514 1515 1517 1519 1521 1523 1526 1528
1495 1489 1478 1477 1475 1470 1470 1470 1469 1470 1471 1473 1476 1475 1476 1477 1477 1479 1484 1491 1494 1490 1487 1488 1482 1474 1472 1463 1451 1451 1454 1456 1460 1459 1458 1457 1456 1456 1456 1455 1454 1453 1452 1452 1451 1451 1450 1451 1452 1453 1454 1455 1457 1457 1458 1460 1462 1463 1465 1467 1470 1472 1474 1476 1478 1481 1483 1486 1489 1492 1495 1497 1500 1502 1504 1505 1507 1509 1511 1512 1514 1516 1518 1521 1524 1526
1496 1492 1480 1477 1477 1472 1469 1470 1471 1471 1471 1472 1475 1474 1475 1478 1479 1480 1483 1486 1491 1494 1490 1490 1490 1482 1475 1467 1456 1453 1455 1456 1457 1459 1460 1460 1459 1458 1458 1458 1457 1455 1454 1453 1451 1450 1450 1450 1450 1451 1451 1452 1453 1454 1455 1457 1459 1460 1462 1464 1466 1468 1471 1474 1476 1478 1480 1483 1486 1489 1492 1495 1497 1499 1501 1503 1505 1507 1508 1510 1512 1514 1516 1519 1521 1523
1495 1494 1484 1478 1478 1475 1471 1472 1477 1477 1473 1472 1473 1475 1476 1478 1479 1481 1484 1485 1486 1493 1493 1490 1488 1478 1469 1466 1460 1456 1456 1456 1456 1458 1459 1462 1462 1461 1460 1459 1459 1458 1456 1454 1452 1450 1449 1449 1449 1450 1450 1449 1450 1451 1452 1454 1456 1457 1458 1460 1462 1465 1467 1470 1473 1475 1477 1480 1483 1486 1490 1492 1494 1496 1498 1500 1502 1503 1505 1507 1509 1511 1513 1516 1519 1521
1493 1495 1489 1480 1477 1477 1475 1476 1479 1480 1478 1477 1477 1479 1479 1480 1482 1482 1485 1488 1486 1488 1494 1495 1487 1472 1465 1464 1459 1456 1457 1457 1458 1459 1459 1462 1463 1462 1461 1460 1459 1459 1457 1455 1453 1451 1449 1448 1448 1448 1449 1448 1448 1449 1450 1451 1452 1453 1455 1456 1458 1460 1463 1465 1468 1471 1474 1477 1480 1483 1486 1489 1491 1493 1495 1497 1499 1501 1503 1505 1507 1508 1510 1513 1515 1518
1493 1495 1494 1488 1482 1480 1479 1477 1478 1478 1479 1480 1481 1484 1484 1483 1483 1483 1486 1490 1489 1488 1493 1497 1489 1471 1462 1460 1457 1458 1460 1459 1460 1460 1459 1459 1460 1461 1460 1459 1458 1457 1456 1456 1453 1452 1450 1448 1447 1446 1447 1447 1446 1446 1447 1448 1449 1450 1452 1453 1454 1456 1458 1461 1464 1467 1470 1473 1476 1479 1482 1485 1488 1489 1491 1494 1496 1498 1500 1502 1503 1505 1507 1509 1511 1514
1492 1495 1496 1492 1487 1483 1480 1477 1477 1478 1478 1480 1482 1485 1486 1486 1486 1488 1490 1492 1493 1492 1492 1497 1492 1472 1460 1459 1459 1459 1460 1460 1460 1459 1457 1456 1455 1457 1458 1457 1457 1455 1454 1454 1453 1451 1449 1447 1445 1444 1444 1444 1444 1444 1445 1445 1446 1447 1449 1450 1452 1453 1455 1457 1460 1463 1465 1469 1471 1475 1479 1481 1484 1486 1487 1490 1492 1494 1496 1499 1501 1502 1504 1507 1509 1511
1492 1495 1496 1493 1487 1483 1479 1477 1478 1479 1479 1482 1486 1487 1488 1488 1488 1490 1492 1492 1495 1494 1491 1494 1490 1471 1459 1460 1459 1459 1459 1458 1458 1458 1457 1455 1452 1452 1453 1454 1454 1453 1452 1452 1451 1449 1447 1445 1444 1442 1441 1441 1441 1442 1442 1443 1444 1444 1445 1447 1449 1450 1451 1454 1456 1459 1461 1464 1467 1471 1474 1476 1479 1481 1483 1486 1489 1491 1493 1495 1497 1499 1501 1504 1506 1509
1493 1495 1497 1496 1492 1485 1482 1482 1480 1481 1484 1488 1490 1490 1490 1490 1490 1490 1492 1493 1495 1492 1490 1492 1485 1467 1460 1460 1457 1458 1459 1457 1457 1458 1458 1456 1452 1449 1449 1449 1450 1449 1448 1448 1447 1447 1445 1442 1441 1439 1438 1437 1437 1438 1439 1440 1441 1441 1442 1443 1445 1446 1448 1451 1453 1454 1456 1459 1462 1466 1469 1472 1474 1476 1479 1483 1486 1488 1490 1492 1494 1496 1498 1500 1503 1506
1493 1496 1496 1498 1498 1494 1490 1489 1488 1488 1491 1493 1493 1492 1492 1492 1492 1492 1493 1496 1496 1493 1492 1490 1479 1463 1458 1461 1460 1460 1460 1458 1456 1456 1457 1456 1453 1449 1447 1446 1445 1444 1443 1442 1442 1442 1441 1439 1437 1435 1434 1433 1433 1434 1436 1436 1437 1438 1438 1439 1440 1443 1445 1447 1449 1451 1452 1454 1457 1461 1465 1467 1469 1471 1474 1478 1482 1484 1487 1489 1491 1493 1496 1498 1500 1503
1493 1496 1495 1495 1497 1496 1493 1491 1493 1495 1494 1493 1493 1494 1494 1494 1494 1494 1496 1497 1496 1495 1492 1486 1479 1468 1460 1462 1464 1461 1461 1460 1456 1454 1454 1453 1451 1449 1446 1443 1441 1439 1438 1438 1436 1436 1436 1435 1432 1430 1429 1429 1429 1429 1431 1432 1433 1435 1435 1435 1436 1439 1441 1443 1445 1447 1448 1450 1453 1457 1460 1462 1464 1466 1469 1473 1477 1480 1483 1485 1488 1491 1494 1496 1498 1500
1494 1495 1494 1494 1494 1493 1491 1491 1492 1495 1495 1493 1494 1495 1495 1495 1496 1496 1497 1495 1495 1497 1490 1481 1481 1477 1464 1461 1464 1462 1461 1460 1456 1453 1451 1450 1449 1447 1443 1440 1437 1434 1433 1432 1431 1430 1429 1429 1428 1426 1424 1424 1424 1424 1425 1427 1429 1430 1431 1431 1432 1434 1437 1439 1441 1443 1444 1446 1449 1452 1455 1458 1460 1462 1465 1469 1472 1476 1479 1481 1484 1487 1491 1493 1495 1497
1495 1495 1493 1494 1493 1491 1491 1491 1490 1493 1496 1496 1496 1496 1495 1496 1496 1496 1496 1494 1494 1496 1490 1481 1482 1481 1470 1464 1464 1461 1460 1458 1455 1453 1451 1448 1446 1443 1440 1437 1433 1429 1427 1426 1425 1424 1422 1421 1421 1421 1419 1419 1419 1418 1419 1421 1423 1425 1427 1427 1428 1430 1432 1434 1436 1438 1440 1442 1445 1447 1450 1454 1456 1459 1462 1466 1469 1472 1475 1478 1481 1484 1487 1489 1491 1493
1495 1495 1493 1494 1493 1491 1489 1489 1489 1492 1496 1497 1497 1497 1496 1496 1497 1496 1495 1494 1493 1493 1489 1485 1485 1480 1470 1465 1463 1460 1459 1457 1454 1452 1448 1445 1442 1439 1436 1433 1428 1424 1421 1419 1418 1417 1415 1414 1413 1414 1414 1413 1413 1413 1413 1414 1417 1419 1421 1423 1425 1426 1427 1430 1432 1433 1435 1437 1440 1443 1447 1450 1452 1455 1458 1461 1465 1469 1472 1476 1478 1480 1483 1486 1488 1489
1496 1496 1495 1495 1495 1492 1488 1487 1489 1492 1495 1497 1497 1498 1497 1496 1496 1495 1494 1493 1492 1491 1487 1487 1485 1476 1465 1463 1464 1461 1458 1454 1451 1448 1444 1440 1437 1433 1429 1426 1422 1419 1415 1412 1410 1409 1408 1406 1404 1405 1406 1406 1406 1407 1407 1408 1410 1413 1415 1418 1420 1421 1423 1425 1427 1429 1430 1432 1436 1440 1443 1445 1448 1450 1453 1457 1462 1466 1469 1472 1475 1477 1480 1483 1485 1487
1497 1498 1497 1496 1497 1494 1489 1487 1490 1493 1493 1494 1496 1497 1498 1497 1496 1494 1493 1491 1491 1489 1486 1485 1482 1472 1463 1462 1462 1458 1456 1453 1448 1445 1441 1436 1432 1428 1423 1418 1413 1410 1407 1404 1402 1401 1400 1399 1397 1396 1397 1398 1399 1401 1401 1402 1404 1407 1409 1412 1415 1417 1419 1421 1423 1425 1426 1428 1432 1435 1438 1441 1444 1446 1448 1453 1459 1463 1467 1470 1472 1474 1476 1479 1482 1484
1500 1500 1498 1498 1499 1495 1490 1489 1491 1491 1493 1496 1498 1498 1498 1497 1495 1492 1490 1487 1487 1487 1487 1483 1477 1469 1464 1463 1460 1453 1450 1447 1443 1441 1439 1432 1427 1423 1418 1412 1407 1402 1398 1395 1393 1392 1391 1390 1389 1387 1387 1389 1391 1393 1395 1396 1398 1401 1404 1407 1410 1413 1415 1416 1418 1420 1422 1424 1426 1429 1432 1436 1440 1441 1444 1450 1456 1461 1465 1468 1471 1472 1473 1475 1478 1480
1502 1502 1500 1500 1500 1496 1491 1490 1490 1491 1497 1501 1499 1496 1496 1495 1493 1491 1488 1484 1483 1483 1484 1480 1474 1469 1465 1463 1458 1452 1446 1441 1438 1438 1435 1429 1422 1416 1411 1406 1401 1395 1391 1388 1385 1382 1381 1380 1379 1378 1378 1380 1382 1385 1388 1390 1392 1395 1398 1402 1406 1408 1410 1411 1413 1415 1418 1419 1422 1425 1428 1433 1435 1436 1439 1446 1453 1458 1464 1468 1469 1470 1471 1472 1474 1475
1501 1502 1501 1501 1501 1498 1493 1490 1489 1494 1500 1500 1495 1493 1494 1492 1491 1490 1484 1480 1479 1479 1478 1477 1473 1468 1464 1459 1454 1449 1443 1436 1432 1431 1428 1422 1417 1412 1406 1400 1394 1387 1383 1380 1376 1373 1371 1370 1369 1369 1369 1371 1373 1377 1380 1383 1385 1389 1392 1396 1400 1403 1405 1406 1408 1410 1413 1415 1417 1420 1425 1430 1432 1432 1435 1442 1448 1455 1462 1467 1468 1468 1469 1470 1470 1471
1499 1500 1501 1501 1500 1500 1499 1496 1494 1496 1498 1496 1493 1492 1491 1489 1489 1488 1481 1473 1473 1475 1474 1473 1469 1464 1459 1454 1448 1443 1438 1431 1426 1423 1419 1414 1410 1406 1400 1393 1387 1380 1374 1370 1367 1363 1361 1360 1359 1359 1360 1362 1366 1369 1371 1374 1378 1382 1386 1390 1394 1397 1400 1402 1403 1405 1408 1411 1413 1416 1420 1425 1427 1429 1434 1440 1445 1451 1458 1463 1464 1464 1466 1467 1468 1468
1499 1500 1502 1501 1500 1502 1505 1502 1497 1496 1497 1496 1493 1491 1491 1490 1489 1490 1485 1475 1470 1472 1472 1469 1465 1459 1454 1449 1442 1437 1431 1424 1417 1413 1411 1409 1404 1399 1393 1385 1378 1371 1365 1360 1356 1352 1351 1350 1348 1349 1352 1354 1356 1359 1361 1365 1370 1375 1379 1383 1388 1392 1395 1397 1398 1400 1403 1406 1409 1412 1415 1419 1422 1427 1432 1438 1442 1447 1453 1457 1459 1460 1462 1463 1465 1466
1500 1501 1501 1501 1502 1504 1506 1503 1499 1497 1498 1498 1495 1491 1491 1490 1486 1488 1489 1478 1469 1470 1470 1467 1463 1457 1451 1445 1438 1432 1427 1420 1411 1405 1403 1402 1396 1389 1382 1375 1369 1363 1356 1351 1346 1341 1339 1338 1337 1339 1343 1345 1346 1349 1353 1358 1364 1369 1373 1377 1381 1386 1389 1391 1393 1395 1398 1401 1405 1408 1412 1415 1419 1424 1429 1434 1439 1444 1448 1451 1454 1456 1458 1460 1461 1462
1500 1501 1501 1501 1504 1506 1508 1508 1504 1501 1499 1498 1494 1490 1489 1487 1484 1486 1487 1478 1469 1468 1468 1464 1461 1454 1448 1442 1435 1429 1425 1418 1408 1400 1396 1393 1386 1379 1372 1366 1360 1354 1347 1342 1337 1331 1328 1327 1326 1328 1333 1335 1337 1341 1347 1353 1358 1363 1367 1371 1376 1380 1383 1386 1388 1391 1394 1397 1401 1405 1409 1412 1416 1420 1425 1430 1436 1441 1445 1447 1450 1453 1455 1456 1458 1459
1502 1503 1503 1505 1507 1508 1510 1511 1507 1501 1498 1495 1492 1490 1488 1484 1482 1486 1486 1475 1465 1465 1465 1462 1458 1452 1447 1442 1435 1429 1424 1417 1406 1397 1392 1387 1380 1373 1366 1359 1353 1346 1339 1333 1328 1324 1320 1319 1317 1318 1322 1325 1329 1335 1341 1348 1353 1357 1361 1366 1371 1375 1378 1381 1384 1388 1392 1395 1399 1402 1405 1409 1413 1417 1422 1427 1432 1437 1442 1444 1447 1450 1452 1453 1455 1456
1507 1506 1505 1506 1508 1508 1510 1511 1506 1499 1495 1493 1491 1489 1486 1481 1482 1488 1488 1477 1467 1465 1464 1460 1456 1451 1446 1442 1436 1430 1425 1418 1409 1399 1391 1384 1376 1368 1361 1355 1348 1341 1334 1327 1322 1317 1315 1313 1312 1312 1315 1320 1325 1331 1337 1342 1347 1351 1356 1361 1366 1370 1374 1378 1382 1385 1389 1393 1396 1400 1403 1406 1410 1414 1419 1424 1428 1433 1438 1442 1445 1447 1448 1450 1451 1453
1510 1508 1506 1506 1509 1510 1509 1508 1504 1499 1494 1491 1491 1489 1485 1485 1489 1490 1485 1478 1472 1468 1464 1460 1456 1451 1446 1441 1436 1429 1423 1416 1409 1400 1391 1382 1374 1365 1359 1352 1344 1337 1331 1325 1318 1314 1312 1311 1310 1311 1314 1317 1322 1327 1332 1338 1343 1347 1352 1357 1362 1366 1371 1375 1379 1383 1387 1391 1395 1398 1401 1405 1408 1412 1417 1421 1426 1430 1435 1439 1441 1443 1444 1446 1447 1449
1509 1509 1510 1509 1509 1509 1508 1506 1506 1504 1496 1490 1491 1490 1488 1490 1493 1488 1479 1475 1473 1469 1464 1459 1455 1450 1445 1440 1433 1427 1420 1413 1406 1398 1390 1381 1373 1365 1358 1351 1344 1337 1331 1325 1320 1316 1314 1313 1313 1314 1316 1319 1322 1326 1331 1335 1340 1345 1349 1354 1359 1364 1369 1372 1376 1380 1385 1389 1393 1397 1400 1403 1407 1411 1415 1420 1424 1428 1432 1435 1437 1439 1440 1442 1444 1446
1506 1509 1511 1510 1508 1508 1508 1507 1506 1501 1495 1492 1493 1493 1491 1490 1489 1485 1479 1475 1471 1467 1464 1459 1453 1448 1444 1438 1432 1425 1419 1412 1404 1396 1388 1380 1372 1365 1358 1352 1346 1340 1334 1328 1323 1320 1318 1318 1318 1319 1321 1323 1325 1328 1331 1335 1339 1343 1347 1352 1357 1361 1365 1369 1374 1378 1383 1387 1392 1396 1399 1403 1406 1410 1414 1418 1422 1425 1428 1431 1433 1435 1437 1439 1441 1443
1505 1505 1507 1507 1505 1505 1506 1504 1500 1496 1494 1493 1493 1492 1490 1489 1486 1484 1480 1475 1470 1467 1464 1459 1453 1447 1442 1437 1432 1425 1418 1411 1404 1396 1389 1381 1373 1366 1360 1354 1349 1344 1338 1333 1328 1325 1324 1323 1323 1324 1325 1326 1326 1328 1332 1335 1339 1342 1346 1351 1355 1359 1363 1368 1372 1377 1381 1386 1391 1395 1399 1402 1405 1409 1412 1415 1419 1422 1424 1427 1429 1431 1433 1436 1438 1440
1503 1503 1503 1504 1503 1502 1501 1498 1496 1495 1494 1493 1492 1491 1489 1487 1485 1482 1478 1474 1470 1465 1462 1458 1453 1447 1442 1437 1431 1424 1418 1411 1405 1398 1391 1383 1374 1368 1362 1356 1351 1347 1342 1337 1333 1330 1329 1327 1327 1327 1328 1328 1327 1329 1332 1336 1339 1343 1347 1351 1354 1357 1362 1367 1371 1375 1380 1385 1389 1393 1397 1400 1404 1407 1410 1413 1416 1419 1421 1424 1426 1428 1431 1433 1435 1436
1503 1502 1503 1503 1503 1503 1500 1496 1495 1495 1493 1491 1490 1490 1488 1486 1484 1481 1477 1474 1469 1465 1461 1457 1453 1447 1442 1437 1431 1425 1418 1412 1406 1399 1392 1385 1377 1370 1364 1358 1353 1349 1345 1341 1337 1335 1332 1330 1329 1329 1329 1329 1329 1331 1334 1338 1341 1345 1349 1352 1354 1358 1363 1367 1371 1375 1379 1383 1387 1391 1395 1398 1402 1405 1408 1411 1414 1416 1419 1421 1423 1426 1428 1429 1431 1432
1502 1502 1502 1503 1503 1503 1499 1495 1494 1493 1491 1490 1490 1488 1486 1484 1482 1479 1476 1473 1469 1464 1460 1456 1452 1447 1441 1437 1432 1426 1419 1412 1407 1401 1395 1388 1380 1373 1367 1362 1356 1352 1348 1344 1340 1338 1335 1333 1331 1329 1329 1329 1331 1334 1337 1341 1344 1348 1351 1354 1357 1360 1364 1368 1371 1375 1379 1382 1386 1389 1393 1396 1399 1402 1405 1407 1410 1413 1415 1418 1420 1422 1424 1426 1428 1429
1501 1501 1501 1502 1503 1501 1498 1495 1493 1491 1489 1489 1489 1487 1485 1483 1480 1477 1474 1471 1467 1463 1458 1453 1449 1446 1442 1438 1433 1427 1421 1414 1408 1403 1398 1391 1384 1376 1370 1365 1360 1355 1350 1346 1343 1341 1339 1337 1335 1333 1332 1333 1335 1337 1340 1344 1347 1350 1353 1356 1359 1362 1365 1368 1372 1375 1378 1382 1385 1388 1391 1394 1397 1399 1402 1404 1407 1409 1412 1414 1416 1418 1420 1422 1424 1425
1500 1500 1500 1501 1502 1500 1497 1494 1493 1492 1490 1488 1487 1486 1484 1482 1479 1476 1472 1469 1465 1462 1458 1453 1448 1444 1442 1439 1434 1429 1423 1417 1411 1405 1400 1395 1388 1380 1374 1369 1364 1358 1354 1350 1346 1344 1343 1342 1341 1340 1339 1339 1340 1342 1344 1347 1349 1352 1354 1357 1360 1363 1366 1369 1372 1375 1378 1381 1384 1387 1390 1392 1395 1397 1399 1401 1404 1406 1409 1411 1413 1415 1416 1418 1420 1421
1497 1497 1497 1499 1499 1497 1494 1492 1492 1492 1490 1488 1486 1485 1484 1482 1479 1475 1472 1468 1465 1462 1458 1455 1450 1445 1441 1438 1435 1430 1426 1420 1414 1408 1403 1398 1392 1385 1378 1373 1368 1364 1359 1355 1351 1348 1347 1347 1347 1347 1346 1346 1346 1347 1348 1350 1352 1354 1357 1359 1361 1364 1367 1370 1372 1375 1378 1380 1383 1385 1387 1390 1392 1394 1396 1398 1400 1402 1405 1407 1409 1410 1412 1414 1416 1417